Mountain Home, Arkansas, United States (72653)
Lat: 36.34N, Lon: 92.39W
Wx Zone: ARZ005
Local Info
Past Weather Observations for Thursday, July 2, 2015

NOTE: This archive is for the closest National Weather Service station to Mountain Home. Information may differ from the station used for current weather conditions.

Click here for Long-term Archive

Time Weather Temperature Dewpoint Humidity Pressure Winds Precip Visibility
23:53
Overcast
70°F / 21°C 70°F / 21°C 100% 29.92 in
(1013 mb)
Calm - 8SM
22:53
Overcast
72°F / 22°C 70°F / 21°C 94% 29.95 in
(1014 mb)
Calm 0.00 in
(0.00 mm)
10SM
21:53
Overcast
72°F / 22°C 70°F / 21°C 94% 29.92 in
(1013 mb)
Calm - 10SM
20:53
Mostly Cloudy
70°F / 21°C 66°F / 19°C 88% 29.89 in
(1012 mb)
Calm 0.00 in
(0.00 mm)
10SM
19:53
Partly Cloudy
Light Rain
72°F / 22°C 66°F / 19°C 83% 29.89 in
(1012 mb)
S 3.5 mph
(S 6 kph)
0.00 in
(0.00 mm)
10SM
19:25
Mostly Cloudy
72°F / 22°C 66°F / 19°C 83% 29.89 in
(1012 mb)
SSE 10.4 mph
(SSE 17 kph)
- 10SM
19:18
Mostly Cloudy
73°F / 23°C 66°F / 19°C 78% 29.89 in
(1012 mb)
S 10.4 mph
(S 17 kph)
- 10SM
19:07
Partly Cloudy
77°F / 25°C 70°F / 21°C 79% 29.89 in
(1012 mb)
SSE 8.1 mph
(SSE 13 kph)
- 10SM
18:53
Partly Cloudy
Thunder Storms
77°F / 25°C 70°F / 21°C 79% 29.86 in
(1011 mb)
Calm 0.00 in
(0.00 mm)
10SM
18:30
Partly Cloudy
Thunder Storms
79°F / 26°C 73°F / 23°C 84% 29.86 in
(1011 mb)
Variable 3.5 mph
(Variable 6 kph)
0.00 in
(0.00 mm)
8SM
17:53
Clear
79°F / 26°C 75°F / 24°C 89% 29.83 in
(1010 mb)
Calm - 7SM
16:53
Clear
82°F / 28°C 75°F / 24°C 79% 29.83 in
(1010 mb)
Calm - 8SM
15:53
Clear
84°F / 29°C 75°F / 24°C 74% 29.83 in
(1010 mb)
Variable 4.6 mph
(Variable 7 kph)
- 9SM
14:53
Partly Cloudy
82°F / 28°C 75°F / 24°C 79% 29.86 in
(1011 mb)
Variable 3.5 mph
(Variable 6 kph)
- 10SM
13:53
Mostly Cloudy
82°F / 28°C 73°F / 23°C 74% 29.86 in
(1011 mb)
Calm - 10SM
12:53
Overcast
81°F / 27°C 75°F / 24°C 84% 29.89 in
(1012 mb)
NW 3.5 mph
(NW 6 kph)
- 10SM
11:53
Overcast
81°F / 27°C 73°F / 23°C 79% 29.89 in
(1012 mb)
Calm - 10SM
10:53
Overcast
79°F / 26°C 73°F / 23°C 84% 29.89 in
(1012 mb)
SW 8.1 mph
(SW 13 kph)
- 10SM
09:53
Overcast
72°F / 22°C 70°F / 21°C 94% 29.89 in
(1012 mb)
S 5.8 mph
(S 9 kph)
0.00 in
(0.00 mm)
10SM
08:53
Overcast
Light Rain
70°F / 21°C 66°F / 19°C 88% 29.89 in
(1012 mb)
SSE 8.1 mph
(SSE 13 kph)
0.00 in
(0.00 mm)
10SM
07:53
Overcast
68°F / 20°C 66°F / 19°C 94% 29.92 in
(1013 mb)
SE 3.5 mph
(SE 6 kph)
0.00 in
(0.00 mm)
10SM
07:13
Overcast
Light Rain
68°F / 20°C 66°F / 19°C 94% 29.92 in
(1013 mb)
SSE 9.2 mph
(SSE 15 kph)
0.00 in
(0.00 mm)
10SM
06:53
Overcast
Thunder Storms
68°F / 20°C 66°F / 19°C 94% 29.89 in
(1012 mb)
SSE 6.9 mph
(SSE 11 kph)
0.31 in
(7.87 mm)
10SM
06:39
Overcast
Light Rain
68°F / 20°C 66°F / 19°C 94% 29.92 in
(1013 mb)
S 9.2 mph
(S 15 kph)
0.31 in
(7.87 mm)
7SM
06:22
Overcast
Thunder Storms
68°F / 20°C 66°F / 19°C 94% 29.92 in
(1013 mb)
SSE 11.5 mph
(SSE 19 kph)
0.30 in
(7.62 mm)
3SM
05:53
Overcast
Thunder Storms
70°F / 21°C 68°F / 20°C 94% 29.92 in
(1013 mb)
SSW 9.2 mph
(SSW 15 kph)
- 1 1/2SM
05:34
Overcast
Thunder Storms
70°F / 21°C 68°F / 20°C 94% 29.92 in
(1013 mb)
SSW 4.6 mph
(SSW 7 kph)
- 2 1/2SM
05:27
Overcast
Thunder Storms
68°F / 20°C 68°F / 20°C 100% 29.92 in
(1013 mb)
SSW 5.8 mph
(SSW 9 kph)
- 5SM
05:12
Overcast
Thunder Storms
68°F / 20°C 68°F / 20°C 100% 29.89 in
(1012 mb)
SW 8.1 mph
(SW 13 kph)
- 7SM
05:00
Mostly Cloudy
Thunder Storms
68°F / 20°C 68°F / 20°C 100% 29.89 in
(1012 mb)
Variable 3.5 mph
(Variable 6 kph)
- 10SM
04:53
Mostly Cloudy
Light Rain
68°F / 20°C 66°F / 19°C 94% 29.89 in
(1012 mb)
NW 4.6 mph
(NW 7 kph)
- 10SM
04:34
Mostly Cloudy
Light Rain
68°F / 20°C 68°F / 20°C 100% 29.89 in
(1012 mb)
SSE 10.4 mph
(SSE 17 kph)
0.00 in
(0.00 mm)
9SM
04:07
Mostly Cloudy
Thunder Storms
70°F / 21°C 68°F / 20°C 94% 29.92 in
(1013 mb)
SSE 5.8 mph
(SSE 9 kph)
0.00 in
(0.00 mm)
7SM
04:00
Overcast
Thunder Storms
70°F / 21°C 68°F / 20°C 94% 29.92 in
(1013 mb)
Variable 4.6 mph
(Variable 7 kph)
0.00 in
(0.00 mm)
5SM
03:53
Overcast
Thunder Storms
70°F / 21°C 68°F / 20°C 94% 29.92 in
(1013 mb)
NE 5.8 mph
(NE 9 kph)
1.07 in
(27.18 mm)
2 1/2SM
03:42
Overcast
Thunder Storms
70°F / 21°C 68°F / 20°C 94% 29.95 in
(1014 mb)
Variable 3.5 mph
(Variable 6 kph)
1.00 in
(25.40 mm)
1 1/4SM
03:29
Overcast
Thunder Storms
70°F / 21°C 70°F / 21°C 100% 29.95 in
(1014 mb)
N 10.4 mph
(N 17 kph)
0.67 in
(17.02 mm)
3/4SM
03:15
Overcast
Thunder Storms
70°F / 21°C 68°F / 20°C 94% 29.92 in
(1013 mb)
NE 6.9 mph
(NE 11 kph)
0.21 in
(5.33 mm)
1 3/4SM
03:05
Overcast
Thunder Storms
72°F / 22°C 72°F / 22°C 100% 29.92 in
(1013 mb)
N 9.2 mph
(N 15 kph)
0.08 in
(2.03 mm)
2 1/2SM
02:53
Overcast
Thunder Storms
73°F / 23°C 73°F / 23°C 100% 29.89 in
(1012 mb)
ENE 8.1 mph
(ENE 13 kph)
- 4SM
02:26
Mostly Cloudy
Thunder Storms
73°F / 23°C 73°F / 23°C 100% 29.89 in
(1012 mb)
Calm - 5SM
02:19
Mostly Cloudy
Thunder Storms
73°F / 23°C 73°F / 23°C 100% 29.89 in
(1012 mb)
Calm - 5SM
02:11
Mostly Cloudy
Rain
73°F / 23°C 73°F / 23°C 100% 29.89 in
(1012 mb)
Calm - 7SM
01:53
Mostly Cloudy
Thunder Storms
75°F / 24°C 72°F / 22°C 89% 29.86 in
(1011 mb)
Calm - 8SM
01:43
Partly Cloudy
Thunder Storms
75°F / 24°C 72°F / 22°C 89% 29.89 in
(1012 mb)
Calm - 7SM
01:22
Partly Cloudy
Thunder Storms
79°F / 26°C 70°F / 21°C 74% 29.86 in
(1011 mb)
Calm - 10SM
00:53
Clear
79°F / 26°C 70°F / 21°C 74% 29.83 in
(1010 mb)
SSE 6.9 mph
(SSE 11 kph)
- 10SM
Time Weather Temperature Dewpoint Humidity Pressure Winds Precip Visibility


Weather for websites

WeatherForYou.com, LLC is not responsible for any damages or problems caused by this service. Current weather conditions are obtained from the closest station including government and personal stations which may have varying degrees of accuracy. Weather forecasts are derived from the NOAA NDFD. Like all things, this site belongs to Jesus Christ... He just trusts us to maintain it. If you have any questions or comments email webmaster@weatherforyou.com

Copyright © 2015, WeatherForYou.com LLC. All rights reserved.